EN

Hourly Weather Syvash

Today, 24 January, Sunday

Time Temperature Precipitation Wind Pressure Humidity
00:00 +6°C° 0 mm 5 mps 762 mmHg 80%
01:00 +5°C° 0 mm 5 mps 762 mmHg 80%
02:00 +5°C° 0 mm 5 mps 761 mmHg 81%
03:00 +5°C° 0 mm 5 mps 761 mmHg 80%
04:00 +5°C° 0 mm 5 mps 761 mmHg 79%
05:00 +5°C° 0 mm 5 mps 760 mmHg 79%
06:00 +4°C° 0 mm 6 mps 760 mmHg 78%
07:00 +4°C° 0 mm 6 mps 760 mmHg 77%
08:00 +4°C° 0 mm 6 mps 760 mmHg 75%
09:00 +5°C° 0 mm 7 mps 760 mmHg 72%
10:00 +6°C° 0 mm 7 mps 760 mmHg 69%
11:00 +8°C° 0 mm 7 mps 759 mmHg 65%
12:00 +9°C° 0 mm 6 mps 759 mmHg 62%
13:00 +10°C° 0 mm 6 mps 759 mmHg 60%
14:00 +10°C° 0 mm 5 mps 758 mmHg 57%
15:00 +10°C° 0 mm 5 mps 758 mmHg 63%
16:00 +9°C° 0 mm 5 mps 758 mmHg 69%
17:00 +8°C° 0 mm 6 mps 758 mmHg 76%
18:00 +8°C° 0 mm 6 mps 758 mmHg 75%
19:00 +8°C° 0 mm 6 mps 759 mmHg 75%
20:00 +8°C° 0 mm 6 mps 759 mmHg 75%
21:00 +8°C° 0.1 mm 6 mps 759 mmHg 75%
22:00 +8°C° 0.1 mm 7 mps 758 mmHg 76%
23:00 +8°C° 0.1 mm 7 mps 758 mmHg 76%

Tomorrow, 25 January, Monday

Time Temperature Precipitation Wind Pressure Humidity
00:00 +8°C° 0 mm 7 mps 758 mmHg 75%
01:00 +8°C° 0 mm 7 mps 758 mmHg 74%
02:00 +8°C° 0 mm 7 mps 758 mmHg 73%
03:00 +6°C° 0 mm 7 mps 758 mmHg 73%
04:00 +7°C° 0 mm 6 mps 758 mmHg 73%
05:00 +7°C° 0 mm 6 mps 758 mmHg 73%
06:00 +7°C° 0 mm 6 mps 758 mmHg 74%
07:00 +7°C° 0 mm 6 mps 758 mmHg 75%
08:00 +7°C° 0 mm 6 mps 758 mmHg 75%
09:00 +8°C° 0 mm 6 mps 758 mmHg 72%
10:00 +9°C° 0 mm 7 mps 758 mmHg 68%
11:00 +10°C° 0 mm 7 mps 757 mmHg 65%
12:00 +10°C° 0 mm 7 mps 757 mmHg 65%
13:00 +10°C° 0 mm 7 mps 756 mmHg 65%
14:00 +10°C° 0 mm 8 mps 755 mmHg 65%
15:00 +10°C° 0 mm 8 mps 755 mmHg 66%
16:00 +8°C° 0 mm 9 mps 754 mmHg 68%
17:00 +7°C° 0 mm 9 mps 754 mmHg 70%
18:00 +7°C° 0.5 mm 9 mps 753 mmHg 73%
19:00 +8°C° 0.5 mm 10 mps 753 mmHg 76%
20:00 +8°C° 0.5 mm 10 mps 753 mmHg 79%
21:00 +7°C° 0 mm 10 mps 753 mmHg 78%
22:00 +7°C° 0 mm 10 mps 753 mmHg 77%
23:00 +7°C° 0 mm 10 mps 752 mmHg 76%

Day after tomorrow, 26 January, Tuesday

Time Temperature Precipitation Wind Pressure Humidity
00:00 +7°C° 0.1 mm 9 mps 753 mmHg 77%
01:00 +7°C° 0.1 mm 9 mps 753 mmHg 79%
02:00 +7°C° 0.1 mm 8 mps 753 mmHg 80%
03:00 +6°C° 0 mm 7 mps 753 mmHg 82%
04:00 +6°C° 0 mm 7 mps 753 mmHg 83%
05:00 +6°C° 0 mm 7 mps 753 mmHg 85%
06:00 +5°C° 0.4 mm 6 mps 753 mmHg 86%
07:00 +5°C° 0.4 mm 6 mps 753 mmHg 87%
08:00 +5°C° 0.4 mm 6 mps 753 mmHg 87%
09:00 +5°C° 0.5 mm 7 mps 754 mmHg 81%
10:00 +5°C° 0.5 mm 8 mps 754 mmHg 74%
11:00 +5°C° 0.5 mm 9 mps 755 mmHg 67%
12:00 +5°C° 0 mm 9 mps 755 mmHg 64%
13:00 +5°C° 0 mm 9 mps 756 mmHg 60%
14:00 +5°C° 0 mm 9 mps 756 mmHg 56%
15:00 +5°C° 0 mm 8 mps 757 mmHg 59%
16:00 +4°C° 0 mm 7 mps 758 mmHg 62%
17:00 +3°C° 0 mm 5 mps 758 mmHg 64%
18:00 +3°C° 0 mm 5 mps 759 mmHg 66%
19:00 +3°C° 0 mm 5 mps 759 mmHg 69%
20:00 +3°C° 0 mm 4 mps 760 mmHg 71%
21:00 +3°C° 0 mm 4 mps 760 mmHg 70%
22:00 +3°C° 0 mm 4 mps 760 mmHg 69%
23:00 +3°C° 0 mm 4 mps 760 mmHg 68%

27 January, Wednesday

Time Temperature Precipitation Wind Pressure Humidity
00:00 +1°C° 0 mm 4 mps 760 mmHg 67%
01:00 +2°C° 0 mm 3 mps 760 mmHg 65%
02:00 +2°C° 0 mm 3 mps 761 mmHg 64%
03:00 +3°C° 0 mm 2 mps 760 mmHg 64%
04:00 +3°C° 0 mm 2 mps 760 mmHg 64%
05:00 +3°C° 0 mm 2 mps 760 mmHg 64%
06:00 +3°C° 0 mm 2 mps 760 mmHg 64%
07:00 +3°C° 0 mm 2 mps 760 mmHg 64%
08:00 +4°C° 0 mm 1 mps 761 mmHg 64%
09:00 +4°C° 0 mm 1 mps 761 mmHg 61%
10:00 +4°C° 0 mm 2 mps 760 mmHg 57%
11:00 +4°C° 0 mm 2 mps 760 mmHg 53%
12:00 +5°C° 0 mm 2 mps 760 mmHg 51%
13:00 +4°C° 0 mm 3 mps 759 mmHg 48%
14:00 +4°C° 0 mm 3 mps 759 mmHg 46%
15:00 +3°C° 0 mm 3 mps 759 mmHg 49%
16:00 +3°C° 0 mm 4 mps 758 mmHg 52%
17:00 +1°C° 0 mm 4 mps 758 mmHg 55%
18:00 +1°C° 0 mm 5 mps 758 mmHg 55%
19:00 +1°C° 0 mm 5 mps 758 mmHg 54%
20:00 +1°C° 0 mm 6 mps 757 mmHg 54%
21:00 +1°C° 0.1 mm 6 mps 757 mmHg 55%
22:00 0°C° 0.1 mm 7 mps 757 mmHg 56%
23:00 -1°C° 0.1 mm 7 mps 756 mmHg 57%

28 January, Thursday

Time Temperature Precipitation Wind Pressure Humidity
00:00 -1°C° 0.1 mm 7 mps 756 mmHg 58%
01:00 -1°C° 0.1 mm 7 mps 755 mmHg 59%
02:00 -1°C° 0.1 mm 8 mps 755 mmHg 60%
03:00 -1°C° 0.1 mm 8 mps 755 mmHg 62%
04:00 -1°C° 0.1 mm 8 mps 755 mmHg 64%
05:00 -2°C° 0.1 mm 7 mps 755 mmHg 66%
06:00 -2°C° 0.1 mm 7 mps 755 mmHg 70%
07:00 -2°C° 0.1 mm 7 mps 755 mmHg 74%
08:00 -2°C° 0.1 mm 7 mps 755 mmHg 78%
09:00 -2°C° 0.2 mm 7 mps 755 mmHg 79%
10:00 -2°C° 0.2 mm 8 mps 755 mmHg 79%
11:00 -2°C° 0.2 mm 8 mps 755 mmHg 80%
12:00 -2°C° 0.3 mm 8 mps 755 mmHg 83%
13:00 -2°C° 0.3 mm 8 mps 755 mmHg 87%
14:00 -2°C° 0.3 mm 8 mps 755 mmHg 90%
15:00 -2°C° 0.5 mm 8 mps 755 mmHg 92%
16:00 -3°C° 0.5 mm 7 mps 755 mmHg 93%
17:00 -3°C° 0.5 mm 7 mps 755 mmHg 95%
18:00 -3°C° 0.4 mm 7 mps 756 mmHg 95%
19:00 -3°C° 0.4 mm 7 mps 756 mmHg 95%
20:00 -3°C° 0.4 mm 7 mps 756 mmHg 96%

29 January, Friday

Time Temperature Precipitation Wind Pressure Humidity
Show more

We Need Your Consent

Meteoprog and our Service Providers may store and access personal data such as cookies, device identifiers or other similar technologies on your device and process such data to personalise content and ads, as well as provide social media features and to analyse the traffic.

  • Store and/or access information on your device

    Cookies, device identifiers or other information can be stored or accessed on your device for the purposes indicated above.

  • Personalised ads and content, ad and content measurement, audience insights, and products development

    Ads and content can be personalised based on a profile. More data can be added to better personalise ads and content. Ad and content performance can be measured. Insights about the audience who saw the ads and content can be derived. Such data can be used to develop or improve user’s experience, systems and software.

By clicking ‘I Agree’ you will allow the use of indicated cookies, device identifiers, web beacons or other similar technologies. Your settings can be changed in the browser on your device.

For certain purposes, legitimate interests may be relied on, rather than consent. You can read more about this in our Privacy and Cookie Policy.